Regional Weather Roundup
Issued by NWS

Home | Current Version | Previous Version | Text Only | Print | Product List | Glossary On
Versions: 1 2 3 4 5 6 7 8 9 10 11 12 13 14 15 16 17 18 19 20 21 22 23 24 25 26 27 28 29 30 31 32 33 34 35 36 37 38 39 40 41 42 43 44 45 46 47 48 49 50
000
ASUS43 KOAX 210910
RWRNE

WEATHER ROUNDUP FOR NEBRASKA
NATIONAL WEATHER SERVICE OMAHA NE
300 AM CST TUE NOV 21 2017

NOTES: SATELLITE DATA IS BEING USED TO AUGMENT CLOUD COVER ABOVE
       12000 FEET.
       "FAIR" INDICATES FEW OR NO CLOUDS BELOW 12,000 FEET WITH NO
       SIGNIFICANT WEATHER AND/OR OBSTRUCTIONS TO VISIBILITY.


NEZ001>004-019>022-054>056-211000-
NEBRASKA PANHANDLE

CITY           SKY/WX    TMP DP  RH WIND       PRES   REMARKS
SCOTTSBLUFF    CLEAR     46  28  49 NW16      29.94R
ALLIANCE       CLOUDY    39  25  57 N23G31    29.93R WCI  28
CHADRON        CLOUDY    37  27  67 NE20G28   30.01R WCI  27
GORDON         CLOUDY    36  24  64 N17G23    29.96R WCI  25
KIMBALL        CLOUDY    49  29  45 NW21G30   29.92R
SIDNEY         PTCLDY    41  17  38 NW8       29.92R
$$

NEZ057>060-069>072-079>082-211000-
SOUTHWEST NEBRASKA

CITY           SKY/WX    TMP DP  RH WIND       PRES   REMARKS
NORTH PLATTE   CLOUDY    39  31  72 N7        29.85R WCI  34
IMPERIAL       CLOUDY    49  23  36 NW5       29.86R
LEXINGTON      CLOUDY    39  28  64 W7        29.85R WCI  34
MCCOOK         CLOUDY    52  29  41 N8        29.84R
OGALLALA       CLOUDY    44  25  46 CALM      29.86R
$$

NEZ005>010-023>029-035>040-094-211000-
NORTH CENTRAL NEBRASKA

CITY           SKY/WX    TMP DP  RH WIND       PRES   REMARKS
VALENTINE      CLOUDY    40  24  53 N24G37    29.94R WCI  29
AINSWORTH      CLOUDY    38  27  62 N23G37    29.92R WCI  28
BROKEN BOW     CLOUDY    42  25  50 N9        29.83R
O`NEILL        CLOUDY    40  21  46 N17G24    29.90R WCI  31
ORD            CLOUDY    44  26  49 N14       29.84R
THEDFORD       MOCLDY    42  27  55 N9G17     29.90R
$$

NEZ041-046>049-061>064-073>077-083>087-211000-
SOUTH CENTRAL NEBRASKA

CITY           SKY/WX    TMP DP  RH WIND       PRES   REMARKS
GRAND ISLAND   CLOUDY    37  28  70 W6        29.82R WCI  32
AURORA         CLOUDY    37  27  66 N8        29.80R WCI  31
HASTINGS       CLOUDY    42  25  50 NE3       29.80R
HEBRON         CLOUDY    37  27  68 W3        29.78R
HOLDREGE       CLOUDY    44  28  54 NW6       29.81R
KEARNEY        CLOUDY    41  26  55 NW8       29.82R
YORK           CLOUDY    41  27  56 CALM      29.80R
$$

NEZ011>018-030>034-042>045-211000-
NORTHEAST NEBRASKA

CITY           SKY/WX    TMP DP  RH WIND       PRES   REMARKS
NORFOLK        CLOUDY    40  24  53 N23G31    29.82R WCI  30
ALBION         CLOUDY    44  27  52 N12       29.84R
BLAIR          CLOUDY    47  26  45 N20G26    29.76R
COLUMBUS       CLOUDY    43  26  51 N14       29.82R
FREMONT        CLOUDY    40  27  60 N3        29.79R
TEKAMAH        CLOUDY    43  27  53 N18       29.79R
WAYNE          CLOUDY    40  18  40 N14G22    29.84R WCI  33
$$

NEZ050>053-065>068-078-088>093-211000-
SOUTHEAST NEBRASKA

CITY           SKY/WX    TMP DP  RH WIND       PRES   REMARKS
LINCOLN        CLOUDY    30  25  81 N6        29.79R WCI  24
OMAHA EPPLEY   CLOUDY    36  28  73 N9        29.76R WCI  29
BEATRICE       PTCLDY    31  26  81 CALM      29.75R
FALLS CITY     CLEAR     40  28  62 W5        29.73R
NEBRASKA CITY  CLOUDY    42  28  58 CALM      29.75R
PLATTSMOUTH    PTCLDY    40  29  63 NW7       29.75R
$$

NEZ044-045-051>053-067-211000-
OMAHA AREA

CITY           SKY/WX    TMP DP  RH WIND       PRES   REMARKS
OMAHA EPPLEY   CLOUDY    36  28  73 N9        29.76R WCI  29
BLAIR          CLOUDY    47  26  45 N20G26    29.76R
FREMONT        CLOUDY    40  27  60 N3        29.79R
MILLARD        CLOUDY    37  29  73 NW5       29.77R WCI  33
OFFUTT AFB     CLOUDY    37  28  69 W9        29.75R WCI  31
PLATTSMOUTH    PTCLDY    40  29  63 NW7       29.75R
WAHOO          FAIR      38  27  64 N9        29.78R WCI  32
$$



USA.gov is the U.S. government's official web portal to all federal, state and local government web resources and services.